Regional Weather Roundup
Issued by NWS Green Bay, WI

Home | Current Version | Previous Version | Text Only | Print | Product List | Glossary On
Versions: 1 2 3 4 5 6 7 8 9 10 11 12 13 14 15 16 17 18 19 20 21 22 23 24 25 26 27 28 29 30 31 32 33 34 35 36 37 38 39 40 41 42 43 44 45 46 47 48 49 50
000
ASUS43 KGRB 032300
RWRGRB

NORTH-CENTRAL AND NORTHEAST WISCONSIN REGIONAL WEATHER ROUNDUP
NATIONAL WEATHER SERVICE GREEN BAY WI
600 PM CDT FRI JUL 03 2015

WIZ005-009-010>012-018-019-040000-
NORTH CENTRAL WISCONSIN

CITY           SKY/WX    TMP DP  RH WIND       PRES   REMARKS
IRONWOOD       MOSUNNY   73  64  73 SW3       29.84S
MANITOWISH WTR NOT AVBL
ARBOR VITAE    NOT AVBL
EAGLE RIVER    NOT AVBL
LAND O LAKES   NOT AVBL
RHINELANDER    PTSUNNY   74  57  55 W7        29.92S
PHILLIPS       NOT AVBL
ANTIGO         NOT AVBL
TOMAHAWK       NOT AVBL
MERRILL        NOT AVBL
$$

WIZ013-073-040000-
NORTHEAST WISCONSIN

CITY           SKY/WX    TMP DP  RH WIND       PRES   REMARKS
IRON MOUNTAIN  CLOUDY    73  59  61 SW5       29.86S
MARINETTE      PTSUNNY   73  52  46 SW9       29.87S
$$

WIZ017-030-035>037-045-040000-
CENTRAL WISCONSIN

CITY           SKY/WX    TMP DP  RH WIND       PRES   REMARKS
MEDFORD        NOT AVBL
WAUSAU         CLOUDY    75  55  49 W10       29.90S
MOSINEE        MOSUNNY   72  57  60 W10       29.92F
MARSHFIELD     SUNNY     75  53  46 W9        29.92S
WISC RAPIDS    SUNNY     77  54  44 W8        29.92F
STEVENS POINT  NOT AVBL
WAUPACA        NOT AVBL
SHAWANO        NOT AVBL
CLINTONVILLE   NOT AVBL
$$

WIZ038-039-048-051-040000-
FOX VALLEY

CITY           SKY/WX    TMP DP  RH WIND       PRES   REMARKS
NWS GREEN BAY  SUNNY     76  53  44 W7        29.90F
APPLETON       PTSUNNY   73  50  43 SW7       29.92F
OSHKOSH        SUNNY     74  52  46 SW5       29.91F
FOND DU LAC    SUNNY     75  53  46 W8        29.92F
$$

WIZ022-050-052-040000-
EAST CENTRAL WISCONSIN

CITY           SKY/WX    TMP DP  RH WIND       PRES   REMARKS
STURGEON BAY   MOSUNNY   73  54  49 SW8       29.91F
MANITOWOC      NOT AVBL
SHEBOYGAN      MOSUNNY   70  49  47 S8        29.92F
$$

LMZ563-521-522-541>543-040000-
LAKESHORE

STATION/POSITION TIME  TEMP    WIND        PRES    VSBY  WAVE
                       AIR SEA DIR/SP/G                  HT/PER
                 (UTC) (F)     (DEG/KT/KT) (MB)    (MI)  (FT/S)
SHEBOYGAN LKSHOR 2200   62     180/ 13/ 14 1013.7F
KEWAUNEE LKSHORE 2200   64     180/ 10/ 11 1012.5F
ALGOMA MARINA    2155          220/ 13/ 16   N/A
NORTHPORT PIER   2200   68     180/  5/  8 1011.9S
N MID LAKE BUOY  2150   50 44  200/ 12/ 14 1012.3S         2/ 3
S GREEN BAY BUOY 2200   71 69  200/ 10/ 14 1013.6F
SISTER BAY LKSHO 2244   71     250/ 11/ 13   N/A
CHAMBERS ISLAND  2200   71     180/  6/ 15 1011.9F
MENOMINEE LKSHOR 2200   73     190/  9/ 14 1012.5F
$$


USA.gov is the U.S. government's official web portal to all federal, state and local government web resources and services.